Hourly Weather Rugeley

Today, 16 April, Friday

Time Temperature Precipitation Wind Pressure Humidity
00:00 +1°C° 0 mm 1 mps 763 mmHg 89%
01:00 +1°C° 0 mm 1 mps 762 mmHg 89%
02:00 +1°C° 0 mm 1 mps 762 mmHg 90%
03:00 +1°C° 0 mm 1 mps 762 mmHg 90%
04:00 +1°C° 0 mm 1 mps 762 mmHg 89%
05:00 +1°C° 0 mm 1 mps 762 mmHg 88%
06:00 0°C° 0 mm 0 mps 762 mmHg 87%
07:00 +3°C° 0 mm 1 mps 762 mmHg 80%
08:00 +5°C° 0 mm 1 mps 762 mmHg 73%
09:00 +7°C° 0 mm 1 mps 762 mmHg 66%
10:00 +8°C° 0 mm 1 mps 762 mmHg 61%
11:00 +9°C° 0 mm 1 mps 762 mmHg 57%
12:00 +9°C° 0 mm 2 mps 761 mmHg 52%
13:00 +10°C° 0 mm 2 mps 761 mmHg 51%
14:00 +11°C° 0 mm 1 mps 761 mmHg 50%
15:00 +11°C° 0 mm 1 mps 760 mmHg 49%
16:00 +11°C° 0 mm 1 mps 760 mmHg 54%
17:00 +10°C° 0 mm 1 mps 760 mmHg 58%
18:00 +10°C° 0 mm 1 mps 760 mmHg 63%
19:00 +8°C° 0 mm 1 mps 761 mmHg 66%
20:00 +7°C° 0 mm 1 mps 761 mmHg 70%
21:00 +5°C° 0 mm 1 mps 761 mmHg 74%
22:00 +4°C° 0 mm 1 mps 761 mmHg 76%
23:00 +4°C° 0 mm 1 mps 761 mmHg 79%

Tomorrow, 17 April, Saturday

Time Temperature Precipitation Wind Pressure Humidity
00:00 +3°C° 0 mm 1 mps 761 mmHg 82%
01:00 +2°C° 0 mm 1 mps 761 mmHg 83%
02:00 +1°C° 0 mm 0 mps 761 mmHg 83%
03:00 +1°C° 0 mm 0 mps 761 mmHg 84%
04:00 +1°C° 0 mm 0 mps 761 mmHg 83%
05:00 +1°C° 0 mm 0 mps 761 mmHg 82%
06:00 +1°C° 0 mm 0 mps 761 mmHg 81%
07:00 +4°C° 0 mm 1 mps 761 mmHg 75%
08:00 +6°C° 0 mm 1 mps 760 mmHg 69%
09:00 +8°C° 0 mm 1 mps 760 mmHg 63%
10:00 +9°C° 0 mm 1 mps 760 mmHg 60%
11:00 +10°C° 0 mm 1 mps 760 mmHg 57%
12:00 +11°C° 0 mm 1 mps 759 mmHg 55%
13:00 +12°C° 0 mm 1 mps 759 mmHg 53%
14:00 +12°C° 0 mm 1 mps 758 mmHg 52%
15:00 +12°C° 0 mm 1 mps 758 mmHg 50%
16:00 +12°C° 0 mm 2 mps 758 mmHg 56%
17:00 +10°C° 0 mm 2 mps 758 mmHg 61%
18:00 +9°C° 0 mm 2 mps 758 mmHg 66%
19:00 +8°C° 0 mm 2 mps 758 mmHg 69%
20:00 +6°C° 0 mm 2 mps 758 mmHg 71%
21:00 +4°C° 0 mm 2 mps 758 mmHg 74%
22:00 +4°C° 0 mm 2 mps 758 mmHg 75%
23:00 +3°C° 0 mm 2 mps 757 mmHg 76%

Day after tomorrow, 18 April, Sunday

Time Temperature Precipitation Wind Pressure Humidity
00:00 +4°C° 0 mm 1 mps 757 mmHg 78%
01:00 +3°C° 0 mm 1 mps 757 mmHg 78%
02:00 +3°C° 0 mm 1 mps 757 mmHg 79%
03:00 +3°C° 0 mm 1 mps 757 mmHg 79%
04:00 +3°C° 0 mm 1 mps 757 mmHg 79%
05:00 +3°C° 0 mm 1 mps 757 mmHg 78%
06:00 +4°C° 0 mm 1 mps 757 mmHg 78%
07:00 +5°C° 0 mm 1 mps 757 mmHg 73%
08:00 +7°C° 0 mm 1 mps 757 mmHg 68%
09:00 +8°C° 0 mm 2 mps 757 mmHg 63%
10:00 +9°C° 0 mm 2 mps 757 mmHg 60%
11:00 +10°C° 0 mm 2 mps 756 mmHg 57%
12:00 +12°C° 0 mm 2 mps 756 mmHg 54%
13:00 +13°C° 0 mm 2 mps 756 mmHg 53%
14:00 +13°C° 0 mm 2 mps 756 mmHg 51%
15:00 +13°C° 0 mm 2 mps 755 mmHg 49%
16:00 +13°C° 0 mm 2 mps 755 mmHg 55%
17:00 +12°C° 0 mm 2 mps 755 mmHg 60%
18:00 +10°C° 0 mm 2 mps 755 mmHg 66%
19:00 +9°C° 0 mm 2 mps 756 mmHg 69%
20:00 +7°C° 0 mm 2 mps 756 mmHg 71%
21:00 +6°C° 0 mm 2 mps 756 mmHg 74%
22:00 +5°C° 0 mm 2 mps 756 mmHg 77%
23:00 +4°C° 0 mm 2 mps 756 mmHg 80%

19 April, Monday

Time Temperature Precipitation Wind Pressure Humidity
00:00 +4°C° 0 mm 2 mps 756 mmHg 83%
01:00 +4°C° 0 mm 1 mps 755 mmHg 85%
02:00 +4°C° 0 mm 1 mps 755 mmHg 87%
03:00 +4°C° 0 mm 1 mps 755 mmHg 89%
04:00 +4°C° 0 mm 1 mps 755 mmHg 89%
05:00 +4°C° 0 mm 1 mps 755 mmHg 89%
06:00 +4°C° 0 mm 1 mps 755 mmHg 88%
07:00 +5°C° 0 mm 2 mps 755 mmHg 81%
08:00 +7°C° 0 mm 2 mps 755 mmHg 75%
09:00 +9°C° 0 mm 3 mps 755 mmHg 68%
10:00 +10°C° 0 mm 3 mps 754 mmHg 64%
11:00 +11°C° 0 mm 3 mps 754 mmHg 61%
12:00 +12°C° 0 mm 3 mps 754 mmHg 58%
13:00 +12°C° 0 mm 3 mps 753 mmHg 61%
14:00 +11°C° 0 mm 3 mps 753 mmHg 64%
15:00 +11°C° 0 mm 3 mps 753 mmHg 67%
16:00 +10°C° 0 mm 2 mps 753 mmHg 70%
17:00 +10°C° 0 mm 2 mps 752 mmHg 73%
18:00 +9°C° 0 mm 2 mps 752 mmHg 75%
19:00 +9°C° 0 mm 2 mps 752 mmHg 75%
20:00 +10°C° 0 mm 1 mps 752 mmHg 76%
21:00 +9°C° 0 mm 1 mps 752 mmHg 76%
22:00 +9°C° 0 mm 1 mps 752 mmHg 75%
23:00 +9°C° 0 mm 1 mps 752 mmHg 74%

20 April, Tuesday

Time Temperature Precipitation Wind Pressure Humidity
00:00 +9°C° 0 mm 1 mps 752 mmHg 73%
01:00 +9°C° 0 mm 1 mps 751 mmHg 71%
02:00 +9°C° 0 mm 1 mps 751 mmHg 70%
03:00 +9°C° 0 mm 1 mps 751 mmHg 68%
04:00 +8°C° 0 mm 1 mps 751 mmHg 72%
05:00 +8°C° 0 mm 1 mps 751 mmHg 76%
06:00 +7°C° 0 mm 1 mps 751 mmHg 79%
07:00 +8°C° 0 mm 2 mps 751 mmHg 75%
08:00 +9°C° 0 mm 2 mps 751 mmHg 70%
09:00 +10°C° 0 mm 2 mps 751 mmHg 65%
10:00 +12°C° 0 mm 2 mps 750 mmHg 62%
11:00 +13°C° 0 mm 2 mps 750 mmHg 58%
12:00 +12°C° 0 mm 3 mps 750 mmHg 54%
13:00 +13°C° 0 mm 2 mps 750 mmHg 54%
14:00 +13°C° 0 mm 2 mps 749 mmHg 54%
15:00 +13°C° 0 mm 1 mps 749 mmHg 55%
16:00 +13°C° 0.1 mm 2 mps 749 mmHg 61%
17:00 +12°C° 0.1 mm 2 mps 749 mmHg 68%
18:00 +10°C° 0.1 mm 2 mps 749 mmHg 74%
19:00 +9°C° 0 mm 2 mps 750 mmHg 78%
20:00 +8°C° 0 mm 2 mps 750 mmHg 82%
21:00 +7°C° 0 mm 2 mps 750 mmHg 85%
22:00 +7°C° 0 mm 2 mps 750 mmHg 87%
23:00 +6°C° 0 mm 2 mps 751 mmHg 89%

21 April, Wednesday

Time Temperature Precipitation Wind Pressure Humidity
00:00 +6°C° 0 mm 2 mps 751 mmHg 91%
01:00 +5°C° 0 mm 3 mps 751 mmHg 91%
02:00 +5°C° 0 mm 3 mps 752 mmHg 91%
03:00 +5°C° 0 mm 4 mps 752 mmHg 91%
04:00 +5°C° 0 mm 4 mps 752 mmHg 91%
05:00 +5°C° 0 mm 4 mps 753 mmHg 90%
06:00 +5°C° 0 mm 5 mps 753 mmHg 90%
07:00 +6°C° 0 mm 5 mps 754 mmHg 86%
08:00 +7°C° 0 mm 6 mps 754 mmHg 82%
09:00 +6°C° 0 mm 7 mps 755 mmHg 77%
10:00 +8°C° 0 mm 6 mps 755 mmHg 72%
11:00 +8°C° 0 mm 6 mps 755 mmHg 67%
12:00 +9°C° 0 mm 5 mps 755 mmHg 63%
13:00 +9°C° 0 mm 5 mps 755 mmHg 61%
14:00 +10°C° 0 mm 4 mps 756 mmHg 59%
15:00 +10°C° 0 mm 4 mps 756 mmHg 58%
16:00 +10°C° 0 mm 4 mps 756 mmHg 59%
17:00 +8°C° 0 mm 4 mps 756 mmHg 61%
18:00 +8°C° 0 mm 4 mps 756 mmHg 63%
19:00 +7°C° 0 mm 3 mps 757 mmHg 68%
20:00 +4°C° 0 mm 3 mps 757 mmHg 74%
21:00 +3°C° 0 mm 2 mps 758 mmHg 79%
22:00 +3°C° 0 mm 2 mps 758 mmHg 80%
23:00 +3°C° 0 mm 1 mps 758 mmHg 82%
Show more